Location: Lombard
(41.8800°N, 88.0080°W)
Time: 04:18:12
(UTC-06:00)

Transit 4A - All Passes

Search period start: 29 November 2023 00:00
Search period end: 09 December 2023 00:00
Orbit: 864 x 979 km, 66.8° (Epoch: 28 November)

Date Brightness Start Highest point End Pass type
(mag) Time Alt. Az. Time Alt. Az. Time Alt. Az.
29 Nov - 04:42:14 10° N 04:47:06 24° NE 04:51:49 10° E visible
29 Nov - 06:27:58 10° NW 06:34:04 72° WSW 06:39:57 10° SSE visible
29 Nov - 19:49:29 10° SSE 19:54:35 26° ESE 19:59:41 10° NE night (unlit)
29 Nov - 21:34:14 10° SW 21:40:32 58° NW 21:46:49 10° NNE night (unlit)
29 Nov - 23:24:51 10° WNW 23:28:17 15° NW 23:31:42 10° N night (unlit)
30 Nov - 04:51:05 10° NNW 04:56:31 32° NE 05:01:47 10° ESE visible
30 Nov - 06:37:15 10° NW 06:43:04 48° WSW 06:48:43 10° S daylight
30 Nov - 19:57:41 10° S 20:03:30 38° ESE 20:09:17 10° NE night (unlit)
30 Nov - 21:43:47 10° WSW 21:49:48 42° NW 21:55:48 10° NNE night (unlit)
30 Nov - 23:36:03 10° NW 23:37:59 11° NNW 23:39:54 10° N night (unlit)
01 Dec - 03:15:49 10° N 03:17:44 11° NNE 03:19:37 10° NE visible
01 Dec - 05:00:00 10° NNW 05:05:51 44° NE 05:11:29 10° ESE visible
01 Dec - 06:46:42 10° NW 06:52:00 32° WSW 06:57:09 10° S daylight
01 Dec - 20:06:16 10° S 20:12:28 55° ESE 20:18:40 10° NE night (unlit)
01 Dec - 21:53:34 10° WSW 21:59:08 31° NW 22:04:42 10° NNE night (unlit)
02 Dec - 03:24:02 10° N 03:27:24 15° NE 03:30:42 10° ENE visible
02 Dec - 05:09:00 10° NNW 05:15:05 62° ENE 05:20:57 10° SE visible
02 Dec - 06:56:25 10° WNW 07:00:51 21° WSW 07:05:10 10° SSW daylight
02 Dec - 18:33:39 10° SE 18:36:09 12° E 18:38:39 10° ENE visible
02 Dec - 20:15:07 10° SSW 20:21:31 80° ESE 20:27:53 10° NNE visible
02 Dec - 22:03:37 10° W 22:08:35 23° NW 22:13:31 10° N night (unlit)
03 Dec - 03:32:39 10° N 03:36:59 19° NE 03:41:12 10° E visible
03 Dec - 05:18:06 10° NNW 05:24:14 89° ENE 05:30:09 10° SSE visible
03 Dec - 07:06:47 10° WNW 07:09:38 14° WSW 07:12:26 10° SW daylight
03 Dec - 18:40:34 10° SSE 18:44:56 20° ESE 18:49:18 10° ENE visible
03 Dec - 20:24:14 10° SW 20:30:39 74° WNW 20:37:01 10° NNE visible
03 Dec - 22:13:58 10° WNW 22:18:06 18° NW 22:22:14 10° N night (unlit)
04 Dec - 03:41:25 10° N 03:46:28 26° NE 03:51:22 10° E visible
04 Dec - 05:27:17 10° NW 05:33:17 63° WSW 05:39:06 10° SSE visible
04 Dec - 18:48:26 10° SSE 18:53:47 29° ESE 18:59:08 10° NE visible
04 Dec - 20:33:37 10° SW 20:39:51 52° NW 20:46:02 10° NNE visible
04 Dec - 22:24:43 10° WNW 22:27:43 13° NNW 22:30:44 10° N night (unlit)
05 Dec - 03:50:17 10° NNW 03:55:51 35° NE 04:01:15 10° ESE visible
05 Dec - 05:36:37 10° NW 05:42:16 42° WSW 05:47:47 10° S visible
05 Dec - 18:56:45 10° S 19:02:43 43° ESE 19:08:39 10° NE visible
05 Dec - 20:43:14 10° WSW 20:49:08 38° NW 20:55:00 10° NNE visible
05 Dec - 22:36:23 10° NW 22:37:26 10° NNW 22:38:29 10° NNW night (unlit)
06 Dec - 02:14:45 10° N 02:17:10 12° NNE 02:19:33 10° NE visible
06 Dec - 03:59:13 10° NNW 04:05:09 49° NE 04:10:52 10° SE visible
06 Dec - 05:46:07 10° NW 05:51:10 28° WSW 05:56:06 10° SSW visible
06 Dec - 19:05:25 10° SSW 19:11:42 62° ESE 19:17:58 10° NE visible
06 Dec - 20:53:07 10° WSW 20:58:30 28° NW 21:03:52 10° NNE visible
07 Dec - 02:23:08 10° N 02:26:49 16° NE 02:30:24 10° ENE visible
07 Dec - 04:08:15 10° NNW 04:14:21 70° ENE 04:20:14 10° SE visible
07 Dec - 05:55:59 10° WNW 06:00:00 19° WSW 06:03:56 10° SSW visible
07 Dec - 17:32:02 10° SE 17:35:18 15° ESE 17:38:34 10° ENE visible
07 Dec - 19:14:21 10° SSW 19:20:46 88° ESE 19:27:09 10° NNE visible
07 Dec - 21:03:15 10° W 21:07:58 21° NW 21:12:39 10° N visible
08 Dec - 02:31:48 10° N 02:36:21 21° NE 02:40:48 10° E visible
08 Dec - 04:17:22 10° NNW 04:23:28 82° WSW 04:29:21 10° SSE visible
08 Dec - 06:06:49 10° W 06:08:45 12° W 06:10:40 10° WSW visible
08 Dec - 17:39:22 10° SSE 17:44:06 22° ESE 17:48:50 10° ENE visible
08 Dec - 19:23:34 10° SW 19:29:55 66° WNW 19:36:15 10° NNE visible
08 Dec - 21:13:42 10° WNW 21:17:31 16° NW 21:21:18 10° N visible
